Vertical_Velocity
1 2 1 2 1 0 -1 -0 1 -0 0 -1 -2 -2 -1 -3 -4 -3 -3 -5 -4 -3 -3 -4 -1 -1 -0 -2 -2 -2 -8 -3 -0 3 -3 -2 0 -0 -4 5 5 -9 -4 6 2
1 0 1 1 1 -1 -1 1 -1 -1 -2 -3 -3 -2 -3 -2 -4 -2 -3 -2 -4 -3 -4 -5 -6 -2 -2 -1 -4 -5 -3 3 0 1 -2 -1 -3 -1 -10 -5 6 1 -5 3 9
2 2 2 1 -0 -0 -0 -1 -1 -1 -1 -2 -3 -1 -5 -3 -4 -2 -3 -3 -2 -1 -0 -1 -2 -1 0 -1 -5 -7 2 -1 6 -2 -4 0 5 -13 -0 -3 12 1 1 -5 1
1 -1 -1 1 0 -1 -0 0 -2 -3 -2 -1 -1 -1 -4 -2 -4 -2 -2 -1 -3 -4 -3 -3 -3 -3 -3 -5 -3 -5 1 -6 8 1 -2 2 -7 3 -5 21 2 2 5 -6 1
-2 -1 3 2 0 1 0 -2 -2 -1 -3 -3 -2 -2 -2 -2 -4 -4 -3 -2 -2 -4 -4 -5 -5 -7 -2 2 -7 -10 -2 -3 -8 -3 -4 -5 -0 2 -7 8 2 1 7 7 -0
-1 2 -1 -1 -1 -2 -3 -2 -2 -3 -0 -0 -3 -3 -5 -2 -2 -3 -3 -2 -1 -6 -5 -5 -5 -5 -5 -5 -11 -7 -10 -2 -4 1 -10 -9 -4 -15 12 26 -1 -0 6 4 -3
1 -4 -2 -1 -0 1 -0 -2 -3 -2 -3 -3 -3 -4 -4 -4 -2 -1 -4 -3 -2 -4 -9 -8 -8 -6 -10 -3 -2 -4 -8 -0 8 -1 -20 -8 -19 -12 -7 6 1 -2 6 5 -2
0 -1 -2 -2 -1 -3 -1 -1 -1 -2 -4 -4 -2 -4 -2 -4 -3 -3 -5 -4 -5 -6 -8 -9 -10 -8 -7 -2 -3 -7 -9 -15 -0 -2 -0 -7 -34 -1 6 4 1 1 1 8 -2
1 0 -1 -2 -1 -1 -3 -2 -1 -2 -2 -5 -2 -2 -5 -3 -5 -2 -3 -4 -6 -6 -11 -9 -6 -5 -2 -4 -0 -2 -10 -9 -4 3 -13 -4 -28 15 15 6 1 -3 1 6 0
1 1 1 1 -2 -2 -1 -3 -2 -2 -1 -4 2 -4 -3 -4 -2 -4 -2 -5 -8 -11 -5 -4 -5 -7 -4 -6 -5 -9 -10 0 -2 3 -3 1 -12 10 5 2 -0 -1 1 5 -0
-2 -1 -0 -0 -0 -1 2 -2 -3 -1 -1 0 -2 -2 -1 -2 -1 -4 -3 -4 -6 -5 -2 0 -4 -3 -0 -2 0 1 -4 -11 6 1 -21 5 -5 26 -1 -4 -2 -1 2 6 1
1 -2 3 -2 -2 -2 -1 -0 0 -3 0 -3 -2 -3 -3 -3 -4 -5 -2 -2 -6 -4 -1 -1 -2 -5 -1 -3 -9 1 -6 2 18 -6 -14 -3 6 9 -9 -3 1 -1 -2 0 -2
0 1 0 -3 -2 -4 -3 -1 -2 -1 -1 -1 -1 -1 -4 -4 -2 -2 -3 -3 -5 -3 -4 0 -6 -3 -5 -1 -4 1 -0 1 -18 -4 9 -17 -3 -6 -0 -18 -5 -5 1 -1 -2
2 -1 0 -1 -1 -3 -2 -3 -1 -2 -1 2 -2 -0 -1 -3 1 -5 -2 -5 -3 -2 0 -5 7 2 0 -4 -7 0 1 0 -1 -12 -16 -3 -24 3 -5 -7 -12 -7 -4 -5 3
1 0 1 -1 0 -3 -1 -2 -1 -2 -9 -5 -3 -3 -2 -2 -2 -2 -3 -3 -2 -6 -6 -5 2 -1 1 0 1 -1 -4 -4 -6 1 -4 0 -13 1 -7 -11 -12 -5 -3 -4 -2
0 1 1 -0 -1 -2 -2 -2 -1 -2 -2 -4 1 -2 1 -3 -3 -2 -4 -4 0 4 -1 -6 -4 -4 2 -0 -0 -2 -4 1 -2 -3 4 -1 -10 34 -0 5 5 1 -0 -6 -8
2 -1 -0 1 1 -1 -1 -3 -7 -1 1 -1 -2 -3 1 -1 -2 -4 -1 -6 -4 -10 0 10 -4 -2 0 7 2 -2 -4 -12 -8 -9 0 -5 -10 5 1 2 0 -7 1 -5 2
-0 1 0 -0 -1 1 -2 -3 -4 3 -1 1 0 -1 -1 -1 2 -3 -0 -1 -2 -5 -4 -3 10 -7 3 -2 -5 2 1 -1 -18 -11 -9 14 -3 5 -2 0 -2 0 -3 -2 -5
-1 -1 4 -1 0 -0 -1 -4 -1 3 1 1 1 0 1 -0 -3 -2 -1 -5 2 -0 -2 -14 15 -5 -1 -2 -5 2 3 2 -7 11 -2 -2 -3 3 -4 1 -0 2 -1 4 0
-0 -2 6 0 0 -2 -8 5 -4 -3 -1 -1 1 3 -1 -1 -1 -3 -1 -3 1 -0 -1 -0 -10 -1 1 0 -2 -0 -1 -1 4 -10 -8 5 -1 -3 2 6 5 -0 -2 8 8
-0 -2 12 1 0 -5 -12 4 1 -2 -1 -3 0 -0 -0 -0 -1 -1 -3 -5 2 -0 1 -4 0 13 -7 -2 2 1 -1 2 -1 5 1 -14 6 6 -4 -1 -0 5 -5 10 7
-3 -6 15 2 -5 -9 2 7 4 0 -0 -2 -2 1 -0 1 0 0 -0 -4 -1 -1 1 3 -4 2 -5 -0 0 0 -2 2 -2 -1 11 0 1 3 -4 -2 1 -0 -1 4 9
-8 3 -0 1 -22 -4 13 5 -9 3 -2 2 -3 1 3 2 -6 -2 -1 -1 -0 -2 -2 4 -1 -12 11 2 -4 0 -1 -1 0 -0 7 2 3 1 4 7 1 -0 -1 4 -5
11 -14 -11 -14 -11 0 7 4 -3 0 -1 2 -2 -1 0 3 -2 1 -0 -4 -1 -1 0 -1 6 3 -6 -1 -4 0 -1 -1 -1 -1 -1 3 -1 7 25 8 -2 -1 -2 -3 -3
10 -36 0 -25 -11 4 16 2 4 1 -2 1 2 -3 4 3 1 -1 -0 -4 0 -1 0 1 4 0 -4 -1 -1 -0 2 2 -0 0 -2 12 6 -3 24 4 -3 8 -2 -8 -9
4 -21 -12 -3 10 0 -6 -2 13 -2 2 3 2 -4 5 2 1 -2 -2 -6 1 -0 -2 2 2 1 -3 -2 1 2 -1 1 0 4 1 1 0 -0 20 9 5 13 5 -0 5
25 39 0 -7 5 -5 -11 40 12 -9 2 2 -0 -2 2 1 2 0 -2 0 -2 -1 -1 -1 0 -0 -3 -0 2 -0 -1 -0 -1 2 1 -0 2 3 0 11 5 1 2 2 2
Height
5813 5813 5814 5813 5813 5813 5813 5813 5812 5810 5809 5808 5807 5805 5803 5800 5797 5795 5792 5790 5787 5784 5781 5779 5777 5775 5772 5770 5768 5766 5767 5768 5767 5765 5767 5768 5768 5769 5773 5779 5781 5788 5791 5794 5799
5811 5811 5811 5811 5810 5810 5810 5810 5808 5807 5806 5804 5802 5800 5796 5793 5790 5787 5785 5782 5779 5776 5773 5770 5767 5764 5761 5758 5756 5752 5754 5750 5748 5746 5748 5752 5751 5754 5755 5763 5769 5771 5779 5781 5786
5808 5808 5808 5808 5808 5807 5808 5807 5805 5804 5802 5799 5796 5793 5791 5787 5784 5781 5778 5775 5771 5767 5764 5761 5757 5754 5749 5744 5739 5738 5734 5729 5729 5724 5725 5731 5733 5734 5736 5747 5752 5755 5760 5768 5772
5804 5805 5806 5805 5805 5805 5805 5803 5801 5799 5797 5794 5790 5788 5785 5782 5779 5775 5771 5767 5763 5759 5755 5750 5746 5741 5734 5727 5720 5718 5711 5705 5706 5702 5700 5704 5708 5712 5717 5729 5730 5738 5740 5750 5758
5802 5802 5802 5802 5802 5801 5800 5799 5798 5796 5793 5790 5787 5783 5779 5775 5772 5767 5763 5760 5754 5749 5744 5739 5733 5727 5718 5708 5701 5697 5695 5693 5688 5685 5681 5680 5685 5688 5696 5705 5711 5717 5721 5730 5740
5799 5799 5799 5799 5798 5797 5796 5795 5793 5791 5789 5785 5782 5778 5774 5770 5765 5761 5756 5751 5745 5739 5735 5729 5721 5712 5703 5698 5693 5691 5689 5686 5681 5677 5669 5664 5665 5659 5681 5686 5688 5697 5705 5711 5721
5795 5795 5795 5795 5794 5793 5792 5791 5789 5787 5784 5781 5777 5773 5769 5764 5758 5754 5748 5742 5737 5731 5725 5718 5709 5701 5696 5692 5689 5685 5682 5678 5673 5665 5660 5647 5650 5652 5664 5661 5668 5679 5687 5695 5706
5792 5792 5792 5791 5790 5790 5788 5786 5784 5782 5780 5777 5773 5768 5763 5758 5752 5747 5741 5736 5730 5723 5715 5707 5700 5695 5690 5687 5682 5677 5672 5668 5664 5656 5649 5634 5639 5646 5643 5641 5651 5662 5670 5680 5692
5789 5788 5788 5787 5786 5785 5784 5782 5780 5777 5775 5772 5768 5763 5757 5752 5747 5741 5735 5729 5722 5716 5707 5700 5694 5689 5684 5680 5675 5669 5663 5659 5653 5647 5636 5624 5626 5630 5624 5626 5635 5643 5653 5664 5677
5784 5784 5783 5782 5781 5780 5778 5777 5775 5773 5770 5766 5762 5759 5753 5746 5741 5735 5728 5722 5715 5708 5702 5696 5689 5684 5678 5672 5668 5661 5655 5651 5644 5639 5626 5618 5611 5614 5609 5611 5619 5628 5639 5650 5663
5779 5779 5778 5777 5776 5774 5773 5771 5770 5769 5765 5762 5757 5753 5746 5740 5736 5730 5722 5717 5710 5703 5697 5690 5683 5677 5671 5665 5661 5654 5648 5643 5637 5630 5619 5612 5603 5602 5597 5600 5607 5615 5625 5636 5649
5773 5773 5772 5772 5771 5768 5766 5764 5762 5761 5759 5757 5751 5747 5742 5735 5730 5724 5718 5713 5705 5698 5691 5685 5678 5669 5665 5660 5654 5647 5642 5638 5632 5624 5614 5605 5598 5595 5594 5599 5604 5608 5617 5628 5639
5768 5767 5767 5766 5765 5763 5761 5759 5756 5753 5752 5752 5747 5743 5737 5732 5725 5719 5714 5707 5700 5692 5685 5678 5672 5666 5660 5654 5649 5642 5636 5632 5626 5618 5611 5600 5595 5590 5590 5592 5596 5602 5610 5617 5628
5761 5761 5761 5760 5760 5757 5755 5754 5751 5748 5746 5747 5742 5738 5732 5726 5721 5714 5708 5703 5695 5688 5681 5675 5667 5660 5655 5649 5643 5638 5632 5627 5621 5614 5606 5601 5593 5591 5587 5585 5587 5596 5600 5609 5618
5753 5754 5753 5753 5753 5751 5751 5748 5746 5743 5740 5740 5736 5732 5726 5723 5716 5710 5703 5696 5689 5681 5676 5669 5661 5655 5649 5643 5637 5633 5628 5622 5616 5610 5603 5599 5592 5590 5584 5582 5584 5587 5592 5600 5609
5745 5746 5746 5746 5745 5745 5743 5742 5741 5740 5736 5734 5731 5726 5722 5717 5711 5705 5698 5691 5685 5678 5670 5662 5654 5649 5643 5636 5631 5626 5622 5618 5612 5606 5601 5596 5591 5589 5581 5580 5578 5580 5584 5592 5601
5736 5737 5738 5738 5738 5738 5737 5737 5736 5734 5732 5729 5725 5722 5717 5712 5706 5701 5694 5686 5678 5673 5668 5661 5651 5643 5636 5631 5626 5622 5617 5612 5607 5601 5597 5592 5586 5583 5578 5574 5572 5571 5574 5581 5591
5725 5728 5729 5730 5730 5730 5730 5731 5729 5729 5726 5723 5720 5717 5712 5707 5702 5697 5689 5682 5674 5668 5662 5655 5650 5638 5631 5626 5621 5617 5613 5609 5602 5598 5594 5590 5584 5579 5571 5567 5565 5564 5565 5571 5580
5713 5717 5719 5720 5721 5722 5723 5723 5723 5723 5721 5718 5715 5712 5709 5703 5697 5692 5685 5677 5671 5664 5657 5649 5645 5634 5627 5621 5618 5615 5611 5607 5600 5598 5591 5585 5578 5573 5566 5562 5560 5560 5563 5568 5576
5701 5705 5708 5710 5712 5714 5715 5717 5716 5716 5715 5713 5710 5708 5704 5699 5693 5686 5680 5673 5667 5660 5652 5646 5640 5632 5624 5619 5615 5612 5609 5605 5600 5594 5586 5580 5576 5569 5564 5561 5559 5557 5563 5570 5580
5687 5692 5697 5698 5701 5704 5707 5709 5709 5708 5709 5708 5705 5702 5700 5695 5690 5682 5677 5669 5662 5656 5649 5641 5636 5631 5620 5616 5613 5610 5607 5603 5598 5595 5589 5579 5577 5568 5563 5560 5558 5559 5563 5572 5583
5670 5677 5683 5685 5690 5695 5700 5702 5702 5702 5702 5701 5700 5697 5695 5690 5688 5679 5674 5664 5657 5651 5646 5639 5631 5626 5620 5614 5610 5607 5604 5601 5596 5593 5588 5582 5576 5568 5563 5561 5559 5563 5568 5574 5582
5649 5658 5666 5671 5678 5686 5691 5692 5693 5695 5694 5695 5694 5693 5690 5686 5682 5676 5671 5663 5655 5648 5642 5636 5628 5622 5619 5613 5608 5605 5602 5598 5595 5590 5588 5581 5575 5568 5564 5559 5561 5565 5572 5577 5585
5627 5633 5647 5657 5667 5675 5679 5682 5685 5687 5687 5687 5689 5687 5685 5682 5678 5672 5668 5660 5652 5645 5639 5633 5627 5620 5613 5610 5605 5604 5600 5596 5593 5590 5586 5581 5574 5569 5564 5561 5567 5571 5575 5582 5589
5604 5610 5631 5644 5656 5663 5668 5673 5677 5679 5679 5680 5682 5680 5680 5678 5674 5668 5665 5657 5649 5643 5638 5631 5626 5618 5611 5607 5604 5602 5599 5596 5593 5590 5585 5581 5576 5572 5568 5567 5569 5572 5577 5584 5595
5581 5593 5609 5629 5641 5646 5653 5663 5668 5669 5672 5674 5674 5673 5675 5673 5670 5665 5661 5654 5648 5641 5635 5630 5624 5617 5610 5606 5603 5601 5598 5596 5593 5592 5589 5583 5579 5576 5574 5575 5576 5578 5582 5590 5599
5561 5577 5591 5609 5623 5631 5646 5655 5657 5658 5663 5665 5666 5667 5669 5668 5665 5661 5657 5652 5645 5640 5634 5628 5622 5616 5609 5605 5603 5601 5598 5596 5594 5592 5590 5586 5583 5581 5579 5581 5583 5586 5591 5596 5604